x

8773037 - Seadrift, Tx (sdrt2) Weather Station

11:54am - Sat 10th Dec 2016 All times are CST. -6 hours from GMT.

  • Wind
    13mph, 18mph gusts
  • Sea Temp 55°f
  • Air Temp 57°f
  • Sea Pressure 1028.1mb
  • 8773037 - Seadrift, Tx
  • 8773037 - Seadrift, Tx

More Historic Weather Station data

Upgrade to MSW Pro to gain access to the past 30 days of data for over 8000 Wavebouys and Weather Stations around the globe.

Join Pro

Comparision Forecast

View Surf forecast
   
Sat 12/10 11:54am 13 18 mph 1028.1mb 55f 57f
11:48am 11 20 mph 1028.2mb 55f 56f
11:42am 11 20 mph 1028.6mb 55f 56f
11:36am 10 15 mph 1028.8mb 55f 55f
11:30am 8 14 mph 1029.1mb 54f 55f
11:24am 10 15 mph 1029.2mb 54f 54f
11:18am 10 16 mph 1029.3mb 54f 54f
11:12am 9 17 mph 1029.3mb 54f 54f
11:06am 8 16 mph 1029.5mb 54f 54f
11:00am 11 15 mph 1029.6mb 54f 53f
10:54am 11 16 mph 1029.7mb 54f 53f
10:48am 9 16 mph 1029.8mb 54f 53f
10:42am 10 16 mph 1030mb 54f 53f
10:36am 9 15 mph 1030.1mb 54f 52f
10:30am 10 15 mph 1030.1mb 54f 52f
10:24am 9 16 mph 1030.2mb 54f 52f
10:18am 9 15 mph 1030.3mb 54f 52f
10:12am 9 16 mph 1030.3mb 54f 52f
10:06am 9 15 mph 1030.2mb 54f 51f
10:00am 11 16 mph 1030.3mb 54f 51f
9:54am 11 16 mph 1030.3mb 54f 51f
9:48am 8 14 mph 1030.4mb 54f 50f
9:42am 8 14 mph 1030.5mb 54f 50f
9:36am 8 11 mph 1030.5mb 54f 50f
9:30am 8 14 mph 1030.5mb 54f 49f
9:24am 9 14 mph 1030.5mb 54f 49f
9:18am 9 15 mph 1030.4mb 54f 49f
9:12am 8 15 mph 1030.3mb 54f 49f
9:06am 9 15 mph 1030.4mb 54f 49f
9:00am 10 15 mph 1030.4mb 54f 49f
8:54am 9 14 mph 1030.4mb 54f 48f
8:48am 9 14 mph 1030.3mb 54f 48f
8:42am 9 15 mph 1030.3mb 54f 48f
8:36am 9 14 mph 1030.3mb 54f 48f
8:30am 8 14 mph 1030.3mb 54f 48f
8:24am 10 15 mph 1030.2mb 54f 48f
8:18am 9 14 mph 1030.1mb 54f 48f
8:12am 10 15 mph 1030mb 54f 47f
8:06am 10 17 mph 1030mb 54f 47f
8:00am 9 14 mph 1029.9mb 54f 47f
7:54am 10 16 mph 1029.9mb 54f 47f
7:48am 11 16 mph 1029.8mb 54f 47f
7:42am 11 17 mph 1029.7mb 54f 47f
7:36am 13 17 mph 1029.7mb 54f 47f
7:30am 11 15 mph 1029.7mb 54f 47f
7:24am 10 17 mph 1029.8mb 54f 47f
7:18am 10 17 mph 1029.9mb 54f 47f
7:12am 10 14 mph 1030.1mb 54f 47f
7:06am 9 15 mph 1030.2mb 54f 47f
7:00am 8 15 mph 1030.3mb 55f 47f
6:54am 9 15 mph 1030.3mb 55f 47f
6:48am 11 15 mph 1030.3mb 55f 47f
6:42am 10 15 mph 1030.3mb 55f 48f
6:36am 11 14 mph 1030.3mb 55f 48f
6:30am 9 14 mph 1030.5mb 55f 48f
6:24am 9 15 mph 1030.4mb 55f 48f
6:18am 9 15 mph 1030.3mb 55f 48f
6:12am 9 14 mph 1030.2mb 55f 48f
6:06am 9 11 mph 1030.3mb 55f 48f
6:00am 10 14 mph 1030.3mb 55f 48f
5:54am 9 11 mph 1030.3mb 55f 48f
5:48am 7 11 mph 1030.3mb 55f 48f
5:42am 8 11 mph 1030.2mb 55f 48f
5:36am 8 13 mph 1030mb 55f 47f
5:30am 9 13 mph 1030mb 55f 47f
5:24am 7 13 mph 1030.1mb 55f 47f
5:18am 9 14 mph 1030.2mb 55f 47f
5:12am 9 13 mph 1030.2mb 55f 47f
5:06am 7 10 mph 1030.2mb 55f 47f
5:00am 8 13 mph 1030.2mb 55f 47f
4:54am 9 11 mph 1030.3mb 54f 47f
4:48am 8 10 mph 1030.2mb 54f 47f
4:42am 8 11 mph 1030.3mb 54f 47f
4:36am 8 11 mph 1030.3mb 54f 47f
4:30am 8 10 mph 1030.2mb 54f 47f
4:24am 9 14 mph 1030.3mb 54f 47f
4:18am 9 13 mph 1030.3mb 54f 47f
4:12am 8 11 mph 1030.4mb 54f 47f
4:06am 9 13 mph 1030.4mb 54f 47f
4:00am 8 13 mph 1030.4mb 54f 47f
3:54am 9 14 mph 1030.5mb 54f 47f
3:48am 9 13 mph 1030.7mb 54f 47f
3:42am 9 11 mph 1030.7mb 54f 47f
3:36am 9 13 mph 1030.7mb 54f 47f
3:30am 9 13 mph 1030.8mb 54f 47f
3:24am 7 13 mph 1030.8mb 54f 47f
3:18am 8 13 mph 1030.8mb 54f 47f
3:12am 9 13 mph 1030.8mb 54f 47f
3:06am 7 13 mph 1030.9mb 54f 46f
3:00am 9 11 mph 1030.9mb 54f 46f
2:54am 9 11 mph 1031mb 54f 47f
2:48am 8 13 mph 1031.1mb 54f 47f
2:42am 9 13 mph 1031.1mb 54f 47f
2:36am 7 11 mph 1031.2mb 54f 47f
2:30am 8 13 mph 1031.3mb 54f 47f
2:24am 8 13 mph 1031.4mb 54f 47f
2:18am 9 11 mph 1031.4mb 54f 47f
2:12am 6 13 mph 1031.4mb 54f 47f
2:06am 7 11 mph 1031.5mb 54f 47f
2:00am 8 10 mph 1031.5mb 54f 47f
1:54am 7 11 mph 1031.5mb 54f 47f
1:48am 6 9 mph 1031.6mb 54f 47f
1:42am 7 10 mph 1031.6mb 54f 47f
1:36am 7 10 mph 1031.7mb 54f 47f
1:30am 7 9 mph 1031.7mb 54f 47f
1:24am 7 10 mph 1031.7mb 54f 47f
1:18am 6 9 mph 1031.7mb 54f 46f
1:12am 6 8 mph 1031.8mb 54f 46f
1:06am 6 9 mph 1031.9mb 54f 46f
1:00am 7 9 mph 1032mb 54f 46f
12:54am 6 7 mph 1032.1mb 54f 46f
12:48am 5 7 mph 1032.2mb 54f 45f
12:42am 5 6 mph 1032.3mb 55f 45f
12:36am 5 7 mph 1032.4mb 55f 45f
12:30am 5 8 mph 1032.6mb 55f 45f
12:24am 5 8 mph 1032.7mb 55f 45f
12:18am 6 8 mph 1032.7mb 55f 45f
12:12am 5 8 mph 1032.8mb 55f 45f
12:06am 5 8 mph 1032.7mb 55f 45f
12:00am 6 9 mph 1032.9mb 55f 45f
Fri 12/09 11:54pm 6 9 mph 1032.9mb 55f 45f
11:48pm 6 8 mph 1033mb - -
11:42pm 6 7 mph 1033.1mb - -
11:36pm 6 8 mph 1033.2mb - -
11:30pm 6 8 mph 1033.1mb 55f 45f
11:24pm 6 8 mph 1033.1mb 55f 45f
11:18pm 6 8 mph 1033.2mb 55f -
11:12pm 5 8 mph 1033.2mb 55f 45f
11:06pm 5 8 mph 1033.2mb 55f 45f
11:00pm 6 8 mph 1033.1mb 55f 45f
10:54pm 6 8 mph 1033.2mb 55f 45f
10:48pm 6 8 mph 1033.2mb 55f 45f
10:42pm 5 8 mph 1033.1mb 55f 45f
10:36pm 5 7 mph 1033mb 55f 45f
10:30pm 6 8 mph 1032.9mb 55f 45f
10:24pm 5 8 mph 1032.9mb 55f 45f
10:18pm 5 7 mph 1033mb 55f 46f
10:12pm 6 7 mph 1033mb 55f 46f
10:06pm 5 7 mph 1033mb 55f 46f
10:00pm 5 7 mph 1033mb 55f 46f
9:54pm 3 7 mph 1033.1mb 55f 46f
9:48pm 6 8 mph 1033.1mb 55f 46f
9:42pm 5 7 mph 1033.1mb 55f 46f
9:36pm 6 8 mph 1033.1mb 55f 46f
9:30pm 3 6 mph 1033.2mb 55f 46f
9:24pm 5 7 mph 1033.2mb 55f 46f
9:18pm 3 7 mph 1033.1mb 55f 46f
9:12pm 5 8 mph 1033.1mb 54f 46f
9:06pm 5 7 mph 1033.3mb 54f 46f
9:00pm 3 6 mph 1033.4mb 54f 46f
8:54pm 6 8 mph 1033.3mb 54f 46f
8:48pm 5 6 mph 1033.3mb 54f -
8:42pm 3 6 mph 1033.2mb 54f 46f
8:36pm 3 6 mph 1033.1mb 54f 45f
8:30pm 6 7 mph 1033mb 54f 45f
8:24pm 5 7 mph 1032.9mb 54f 45f
8:18pm 3 6 mph 1032.8mb 54f 45f
8:12pm 3 5 mph 1032.8mb 54f 45f
8:06pm 5 6 mph 1032.8mb 54f 45f
8:00pm 3 6 mph 1032.7mb 54f 45f
7:54pm 3 5 mph 1032.7mb 54f 45f
7:48pm 2 3 mph 1032.7mb 54f 45f
7:42pm 2 3 mph 1032.7mb 54f 45f
7:36pm 2 3 mph 1032.8mb 54f 45f
7:30pm 2 3 mph 1032.9mb 54f 45f
7:24pm 2 3 mph 1032.8mb 54f 45f
7:18pm 3
mph
1032.8mb 54f 45f
7:12pm  -  2 mph 1032.8mb 54f 45f
7:06pm 2 3 mph 1032.8mb 54f 45f
7:00pm 2 3 mph 1032.9mb 54f 45f
6:54pm 1 2 mph 1032.9mb 54f 45f
6:48pm 2 3 mph 1032.9mb 54f 45f
6:42pm 1 2 mph 1032.9mb 54f 46f
6:36pm 2
mph
1032.8mb 54f 46f
6:30pm 1 3 mph 1032.8mb 54f 46f
6:24pm 2 5 mph 1032.7mb 54f 46f
6:18pm 2 3 mph 1032.8mb 54f 46f
6:12pm 2 3 mph 1032.8mb 54f 46f
6:06pm 3 5 mph 1032.8mb 54f 46f
6:00pm 2 5 mph 1032.9mb 54f 46f
5:54pm 2 5 mph 1033mb 54f 46f
5:48pm 3 6 mph 1033mb 54f 46f
5:42pm 5 6 mph 1033mb 54f 46f
5:36pm 5 7 mph 1033.1mb 54f 47f
5:30pm 5 6 mph 1033mb 54f 47f
5:24pm 3 8 mph 1033mb 54f 47f
5:18pm 5 8 mph 1033.1mb 54f 47f
5:12pm 6 8 mph 1033.1mb 54f 47f
5:06pm 3 6 mph 1033.1mb 54f 47f
5:00pm 6 8 mph 1033mb 54f 47f
4:54pm 7 9 mph 1033mb 54f 47f
4:48pm 7 9 mph 1033mb 54f 47f
4:42pm 5 9 mph 1033mb 54f 47f
4:36pm 5 8 mph 1032.9mb 53f 47f
4:30pm 6 8 mph 1032.8mb 53f 47f
4:24pm 5 9 mph 1032.8mb 53f 47f
4:18pm 6 8 mph 1032.8mb 53f 47f
4:12pm 5 7 mph 1032.8mb 53f 47f
4:06pm 6 9 mph 1032.8mb 53f 47f
4:00pm 5 8 mph 1032.8mb 53f 47f
3:54pm 7 9 mph 1032.8mb 53f 47f
3:48pm 7 9 mph 1032.8mb 53f 47f
3:42pm 7 9 mph 1032.8mb 54f 47f
3:36pm 6 10 mph 1032.8mb 54f 47f
3:30pm 6 10 mph 1032.9mb 54f 47f
3:24pm 7 11 mph 1033.1mb 54f 47f
3:18pm 6 10 mph 1033.2mb 54f 47f
3:12pm 6 8 mph 1033.2mb 54f 47f
3:06pm 6 9 mph 1033.2mb 53f 47f
3:00pm 8 10 mph 1033.2mb 53f 46f
2:54pm 8 13 mph 1033.3mb 53f 46f
2:48pm 7 13 mph 1033.4mb 53f 47f
2:42pm 8 10 mph 1033.4mb 53f 47f
2:36pm 7 11 mph 1033.5mb 53f 46f
2:30pm 9 13 mph 1033.7mb 53f 46f
2:24pm 7 10 mph 1033.7mb 53f 46f
2:18pm 9 13 mph 1033.7mb 53f 46f
2:12pm 6 9 mph 1033.7mb 53f 46f
2:06pm 6 10 mph 1033.8mb 53f 46f
2:00pm 7 11 mph 1033.7mb 53f 46f
1:54pm 8 11 mph 1033.7mb 53f 46f
1:48pm 6 9 mph 1033.8mb 53f 46f
1:42pm 5 9 mph 1033.8mb 53f 46f
1:36pm 7 9 mph 1033.8mb 53f 46f
1:30pm 8 11 mph 1033.8mb 53f 45f
1:24pm 6 10 mph 1033.9mb 53f 46f
1:18pm 6 10 mph 1034mb 53f 45f
1:12pm 6 10 mph 1034mb 53f 45f
1:06pm 9 14 mph 1034.1mb 53f 45f
1:00pm 7 11 mph 1034.1mb 53f 45f
12:54pm 6 11 mph 1034.2mb 53f 45f
12:48pm 7 13 mph 1034.3mb 53f 45f
12:42pm 8 14 mph 1034.5mb 53f 44f
12:36pm 6 13 mph 1034.7mb 53f 45f
12:30pm 9 14 mph 1034.7mb 53f 45f
12:24pm 9 11 mph 1034.8mb 53f 44f
12:18pm 9 14 mph 1034.9mb 53f 44f
12:12pm 7 13 mph 1035mb 53f 44f
12:06pm 9 14 mph 1035mb 53f 44f
12:00pm 8 13 mph 1035.1mb 53f 44f
11:54am 9 13 mph 1035.2mb 53f 44f
11:48am 9 14 mph 1035.2mb 53f 44f
11:42am 10 14 mph 1035.5mb 52f 44f
11:36am 7 14 mph 1035.5mb 52f 44f
11:30am 8 13 mph 1035.6mb 52f 44f
11:24am 11 16 mph 1035.8mb 52f 44f
11:18am 10 14 mph 1035.9mb 52f 44f
11:12am 8 15 mph 1035.9mb 52f 44f
11:06am 9 17 mph 1036mb 52f 44f
11:00am 11 17 mph 1036.1mb 52f 43f
10:54am 9 16 mph 1036.2mb 52f 43f
10:48am 10 16 mph 1036.2mb 52f 43f
10:42am 13 18 mph 1036.2mb 52f 42f
10:36am 11 18 mph 1036.3mb 51f 42f
10:30am 11 17 mph 1036.2mb 51f 42f
10:24am 13 16 mph 1036.3mb 51f 42f
10:18am 13 22 mph 1036.2mb 51f 42f
10:12am 13 18 mph 1036.2mb 51f 42f
10:06am 13 16 mph 1036.2mb 51f 41f
10:00am 11 15 mph 1036.3mb 51f 42f
9:54am 9 17 mph 1036.3mb 51f 42f
9:48am 10 16 mph 1036.4mb 51f 41f
9:42am 9 16 mph 1036.5mb 51f 41f
9:36am 13 16 mph 1036.4mb 51f 40f
9:30am 11 16 mph 1036.5mb 51f 40f
9:24am 10 15 mph 1036.3mb 51f 40f
9:18am 11 15 mph 1036.2mb 51f 39f
9:12am 9 14 mph 1036.3mb 51f 39f
9:06am 9 15 mph 1036.4mb 51f 39f
9:00am 8 14 mph 1036.4mb 51f 39f
8:54am 10 16 mph 1036.1mb 51f 39f
8:48am 10 15 mph 1036.1mb 51f 38f
8:42am 9 16 mph 1036.1mb 51f 38f
8:36am 8 16 mph 1036.2mb 51f 38f
8:30am 9 15 mph 1036.1mb 52f 38f
8:24am 10 14 mph 1036.1mb 52f 38f
8:18am 9 15 mph 1036.2mb 52f 38f
8:12am 10 14 mph 1036.1mb 52f 38f
8:06am 7 13 mph 1036.2mb 52f 38f
8:00am 9 13 mph 1036.3mb 52f 38f
7:54am 8 14 mph 1036.2mb 52f 38f
7:48am 7 10 mph 1036.2mb 52f 38f
7:42am 7 11 mph 1036.1mb 51f 38f
7:36am 9 11 mph 1036mb 51f 38f
7:30am 8 13 mph 1035.8mb 51f 38f
7:24am 9 14 mph 1035.6mb 52f 38f
7:18am 7 11 mph 1035.5mb 52f 38f
7:12am 7 13 mph 1035.4mb 52f 37f
7:06am 9 14 mph 1035.3mb 51f 37f
7:00am 10 15 mph 1035.3mb 52f 37f
6:54am 8 13 mph 1035.3mb 52f 37f
6:48am 9 14 mph 1035.2mb 52f 37f
6:42am 8 13 mph 1035.4mb 52f 37f
6:36am 9 14 mph 1035.4mb 52f 37f
6:30am 9 14 mph 1035.4mb 52f 37f
6:24am 9 15 mph 1035.4mb 52f 37f
6:18am 9 14 mph 1035.5mb 52f 37f
6:12am 8 14 mph 1035.5mb 52f 37f
6:06am 8 11 mph 1035.4mb 52f 37f
6:00am 9 14 mph 1035.3mb 52f 37f
5:54am 9 14 mph 1035.3mb 52f 37f
5:48am 7 11 mph 1035.4mb 52f 37f
5:42am 9 14 mph 1035.3mb 52f 37f
5:36am 9 14 mph 1035.3mb 52f 37f
5:30am 10 16 mph 1035.3mb 52f 37f
5:24am 9 16 mph 1035.2mb 52f 37f
5:18am 10 15 mph 1035.1mb 52f 38f
5:12am 10 16 mph 1035.2mb 52f 38f
5:06am 9 17 mph 1035.1mb 52f 38f
5:00am 10 17 mph 1035mb 52f 38f
4:54am 11 17 mph 1034.9mb 52f 38f
4:48am 14 18 mph 1034.8mb 52f 38f
4:42am 14 18 mph 1034.9mb 52f 38f
4:36am 10 17 mph 1034.9mb 52f 38f
4:30am 9 15 mph 1034.9mb 52f 38f
4:24am 10 22 mph 1035mb 52f 38f
4:18am 11 18 mph 1034.9mb 52f -
4:12am 10 18 mph 1034.8mb 52f 38f
4:06am 9 15 mph 1034.9mb 52f 38f
4:00am 13 18 mph 1034.9mb 52f 38f
3:54am 11 21 mph 1035mb 53f 38f
3:48am 11 20 mph 1035mb 53f 38f
3:42am 9 20 mph 1035mb 53f 38f
3:36am 13 17 mph 1034.8mb 53f 38f
3:30am 13 18 mph 1035mb 53f 38f
3:24am 11 18 mph 1034.9mb 53f 38f
3:18am 10 20 mph 1034.8mb 53f 38f
3:12am 14 20 mph 1034.7mb 53f 38f
3:06am 11 20 mph 1034.7mb 53f 38f
3:00am 13 22 mph 1034.8mb 53f 38f
2:54am 13 18 mph 1034.8mb 53f 38f
2:48am 13 21 mph 1034.8mb 53f 38f
2:42am 14 22 mph 1034.8mb 53f 38f
2:36am 14 22 mph 1034.6mb 53f 38f
2:30am 16 23 mph 1034.5mb 53f 39f
2:24am 11 22 mph 1034.5mb 53f 39f
2:18am 15 22 mph 1034.5mb 53f 39f
2:12am 13 20 mph 1034.6mb 53f 39f
2:06am 10 17 mph 1034.6mb 53f 39f
2:00am 10 17 mph 1034.7mb 53f 39f
1:54am 11 20 mph 1034.7mb 53f 39f
1:48am 11 22 mph 1034.7mb 53f 39f
1:42am 11 17 mph 1034.7mb 53f 39f
1:36am 11 16 mph 1034.6mb 53f 39f
1:30am 11 18 mph 1034.6mb 54f 39f
1:24am 13 20 mph 1034.5mb 54f 39f
1:18am 13 21 mph 1034.6mb 53f 39f
1:12am 14 20 mph 1034.6mb 54f 39f
1:06am 14 20 mph 1034.6mb 54f 40f
1:00am 9 17 mph 1034.8mb 54f 40f
12:54am 11 20 mph 1034.8mb 54f 40f
12:48am 11 18 mph 1034.8mb 54f 40f
12:42am 14 21 mph 1034.8mb 54f 40f
12:36am 8 15 mph 1034.9mb 54f 40f
12:30am 13 18 mph 1035mb 54f 40f
12:24am 10 20 mph 1034.9mb 54f 40f
12:18am 13 20 mph 1034.9mb 54f 40f
12:12am 14 22 mph 1034.9mb 54f 40f
12:06am 13 18 mph 1035mb 54f 40f
12:00am 9 15 mph 1034.9mb 54f 40f
Thu 12/08 11:54pm 8 20 mph 1034.9mb 54f 40f
11:48pm 15 22 mph 1034.9mb - -
11:42pm 11 18 mph 1034.9mb - -
11:36pm 11 16 mph 1035mb - -
11:30pm 10 14 mph 1035mb 54f 41f
11:24pm 10 22 mph 1034.8mb 54f 41f
11:18pm 13 20 mph 1034.7mb 54f -
11:12pm 13 18 mph 1034.7mb 54f 41f
11:06pm 13 18 mph 1034.8mb 54f 41f
11:00pm 14 18 mph 1034.8mb 54f 41f
10:54pm 11 20 mph 1034.8mb 54f 41f
10:48pm 13 18 mph 1034.7mb 54f 41f
10:42pm 14 22 mph 1034.8mb 54f 41f
10:36pm 11 23 mph 1034.7mb 54f 41f
10:30pm 14 18 mph 1034.7mb 54f 41f
10:24pm 10 20 mph 1034.7mb 54f 41f
10:18pm 13 21 mph 1034.6mb 54f 41f
10:12pm 14 20 mph 1034.7mb 54f 41f
10:06pm 11 18 mph 1034.7mb 54f 41f
10:00pm 14 20 mph 1034.7mb 54f 41f
9:54pm 14 18 mph 1034.6mb 55f 41f
9:48pm 14 20 mph 1034.6mb 55f 41f
9:42pm 11 20 mph 1034.4mb 55f 41f
9:36pm 11 21 mph 1034.3mb 55f 41f
9:30pm 13 22 mph 1034.2mb 55f 42f
9:24pm 13 22 mph 1034.3mb 55f 42f
9:18pm 14 21 mph 1034.2mb 55f -
9:12pm 16 24 mph 1034.2mb 55f 42f
9:06pm 13 21 mph 1034.2mb 55f 42f
9:00pm 11 21 mph 1034.1mb 55f 42f
8:54pm 16 25 mph 1033.9mb 55f 42f
8:48pm 14 22 mph 1034.1mb 55f 42f
8:42pm 13 22 mph 1033.9mb 55f 42f
8:36pm 14 21 mph 1033.7mb 55f 42f
8:30pm 11 29 mph 1033.8mb 55f 42f
8:24pm 15 21 mph 1033.8mb 55f 43f
8:18pm 11 17 mph 1033.8mb 55f 43f
8:12pm 13 22 mph 1033.6mb 55f 43f
8:06pm 14 22 mph 1033.3mb 55f 43f
8:00pm 13 22 mph 1033.3mb 55f 43f
7:54pm 17 24 mph 1033.2mb 56f 43f
7:48pm 15 24 mph 1033.1mb 56f 44f
7:42pm 16 24 mph 1033mb 56f 44f
7:36pm 14 23 mph 1032.9mb 55f 44f
7:30pm 15 22 mph 1033mb 55f 44f
7:24pm 10 18 mph 1032.9mb 55f 44f
7:18pm 11 18 mph 1032.8mb 56f 44f
7:12pm 10 16 mph 1032.8mb 56f 44f
7:06pm 10 22 mph 1032.7mb 56f 44f
7:00pm 13 18 mph 1032.5mb 56f 44f
6:54pm 11 18 mph 1032.5mb 56f 44f
6:48pm 11 20 mph 1032.2mb 56f 44f
6:42pm 14 21 mph 1032mb 56f 44f
6:36pm 13 18 mph 1032mb 56f 44f
6:30pm 13 22 mph 1031.8mb 56f 44f
6:24pm 11 22 mph 1031.7mb 56f 44f
6:18pm 11 21 mph 1031.5mb 56f -
6:12pm 13 22 mph 1031.3mb 56f 45f
6:06pm 15 25 mph 1031.4mb 56f 45f
6:00pm 11 22 mph 1031.4mb 56f 46f
5:54pm 14 18 mph 1031.3mb 56f 46f
5:48pm 15 18 mph 1031.3mb 56f 46f
5:42pm 11 20 mph 1031.2mb 56f 46f
5:36pm 10 16 mph 1031.1mb 56f 46f
5:30pm 9 14 mph 1030.9mb 56f 46f
5:24pm 9 14 mph 1030.8mb 56f 46f
5:18pm 9 13 mph 1030.5mb 56f 45f
5:12pm 13 17 mph 1030.4mb 56f 45f
5:06pm 13 18 mph 1030.4mb 56f 45f
5:00pm 11 18 mph 1030.2mb 56f 45f
4:54pm 14 22 mph 1029.9mb 56f 44f
4:48pm 11 16 mph 1030.4mb 56f 44f
4:42pm 11 17 mph 1030.4mb 56f 44f
4:36pm 11 16 mph 1030.3mb 56f 44f
4:30pm 10 20 mph 1030.5mb 56f 44f
4:24pm 14 24 mph 1030.3mb 57f 44f
4:18pm 16 25 mph 1030.1mb 57f 44f
4:12pm 14 25 mph 1029.9mb 57f 44f
4:06pm 16 23 mph 1029.3mb 57f 44f
4:00pm 15 24 mph 1029.2mb 57f 44f
3:54pm 11 17 mph 1029.2mb 57f 45f
3:48pm 13 17 mph 1029.4mb 57f 44f
3:42pm 11 18 mph 1029.4mb 57f 44f
3:36pm 13 18 mph 1029.3mb 57f 45f
3:30pm 14 20 mph 1029.1mb 57f 45f
3:24pm 15 22 mph 1028.7mb 57f 45f
3:18pm 13 21 mph 1028.5mb 57f 45f
3:12pm 13 17 mph 1028.7mb 57f 45f
3:06pm 11 18 mph 1028.6mb 57f 46f
3:00pm 14 21 mph 1028.8mb 57f 46f
2:54pm 13 21 mph 1028.8mb 57f 46f
2:48pm 10 17 mph 1028.7mb 57f 46f
2:42pm 14 22 mph 1028.5mb 57f 46f
2:36pm 13 23 mph 1028.2mb 57f 46f
2:30pm 13 21 mph 1028mb 57f 46f
2:24pm 16 23 mph 1027.8mb 57f 46f
2:18pm 15 26 mph 1027.8mb 57f -
2:12pm 16 26 mph 1027.7mb 57f 47f
2:06pm 17 26 mph 1027.7mb 57f 47f
2:00pm 17 23 mph 1027.9mb 57f 47f
1:54pm 18 31 mph 1027.8mb 57f 47f
1:48pm 17 26 mph 1027.7mb 58f 47f
1:42pm 17 24 mph 1027.7mb 58f 47f
1:36pm 18 29 mph 1027.8mb 58f 47f
1:30pm 16 26 mph 1027.7mb 58f 47f
1:24pm 16 26 mph 1027.6mb 58f 47f
1:18pm 20 28 mph 1027.4mb 58f 47f
1:12pm 20 31 mph 1027.3mb 58f 47f
1:06pm 22 25 mph 1027.2mb 58f 47f
1:00pm 21 29 mph 1027.3mb 58f 47f
12:54pm 17 30 mph 1027.3mb 58f 47f
12:48pm 23 30 mph 1027.2mb 58f 47f
12:42pm 18 26 mph 1027.3mb 58f 47f
12:36pm 18 26 mph 1027.4mb 58f 47f
12:30pm 21 33 mph 1027.5mb 58f 47f
12:24pm 20 30 mph 1027.5mb 58f 47f
12:18pm 22 33 mph 1027.5mb 58f 47f
12:12pm 21 31 mph 1027.6mb 58f 47f
12:06pm 17 25 mph 1027.6mb 58f 47f
12:00pm 18 26 mph 1027.6mb 58f 48f
11:54am 22 30 mph 1027.6mb 58f 48f
11:48am 22 32 mph 1027.8mb 58f 48f
11:42am 21 33 mph 1027.8mb 58f 48f
11:36am 20 28 mph 1027.9mb 58f 48f
11:30am 22 31 mph 1027.8mb 58f 48f
11:24am 20 29 mph 1027.8mb 58f 48f
11:18am 21 29 mph 1027.7mb 58f 48f
11:12am 20 31 mph 1028mb 58f 48f
11:06am 22 32 mph 1027.7mb 58f 49f
11:00am 21 32 mph 1027.7mb 58f 49f
10:54am 21 31 mph 1027.8mb 58f 49f
10:48am 22 32 mph 1027.6mb 58f 49f
10:42am 21 29 mph 1027.7mb 59f 49f
10:36am 18 26 mph 1027.8mb 59f 49f
10:30am 20 28 mph 1027.8mb 59f 49f
10:24am 21 32 mph 1027.7mb 59f 49f
10:18am 18 28 mph 1027.7mb 59f 50f
10:12am 21 31 mph 1027.7mb 59f 50f
10:06am 14 25 mph 1027.9mb 59f 50f
10:00am 18 28 mph 1027.9mb 59f 50f
9:54am 17 28 mph 1027.9mb 59f 50f
9:48am 15 23 mph 1027.8mb 59f 51f
9:42am 14 26 mph 1027.5mb 59f 51f
9:36am 17 31 mph 1027.1mb 59f 51f
9:30am 24 33 mph 1026.7mb 59f 51f
9:24am 21 29 mph 1026.9mb 59f 51f
9:18am 16 25 mph 1027.2mb 59f 51f
9:12am 16 30 mph 1027.1mb 59f 51f
9:06am 22 34 mph 1026.9mb 59f 51f
9:00am 21 30 mph 1026.5mb 59f 51f
8:54am 20 28 mph 1026.5mb 59f 51f
8:48am 17 26 mph 1026.3mb - -
8:42am 20 26 mph 1026.2mb 59f 51f
8:36am 16 23 mph 1026.1mb 59f 51f
8:30am 17 24 mph 1026mb 59f 51f
8:24am 17 28 mph 1025.9mb 59f 51f
8:18am 14 26 mph 1025.7mb 59f -
8:12am 17 26 mph 1025.4mb 60f 52f
8:06am 16 25 mph 1025.3mb 60f 52f
8:00am 20 31 mph 1025.1mb 60f 52f
7:54am 18 30 mph 1025mb 60f 52f
7:48am 17 24 mph 1024.9mb - 52f
7:42am 20 26 mph 1024.6mb - 52f
7:36am 14 25 mph 1024.5mb - 53f
7:30am 18 28 mph 1024.1mb 60f 53f
7:24am 18 26 mph 1024mb 60f 53f
7:18am 21 28 mph 1023.9mb 60f 53f
7:12am 17 22 mph 1023.8mb 60f 53f
7:06am 18 26 mph 1023.8mb 60f 54f
7:00am 18 28 mph 1023.7mb 60f 54f
6:54am 16 25 mph 1023.6mb 60f 54f
6:48am 17 25 mph 1023.5mb 60f 54f
6:42am 17 24 mph 1023.4mb 60f 54f
6:36am 14 26 mph 1023.2mb 60f 54f
6:30am 14 29 mph 1023mb 60f 54f
6:24am 15 23 mph 1022.9mb 60f 54f
6:18am 15 26 mph 1022.7mb 60f 55f
6:12am 22 32 mph 1022.3mb 60f 55f
6:06am 22 30 mph 1022.2mb 60f 55f
6:00am 18 24 mph 1022.3mb 60f 55f
5:54am 20 28 mph 1022.2mb 60f 55f
5:48am 18 28 mph 1022.3mb - -
5:42am 17 23 mph 1022.3mb 60f 55f
5:36am 14 25 mph 1022.3mb 60f 55f
5:30am 21 28 mph 1022.2mb 60f 55f
5:24am 17 23 mph 1022.1mb 60f 55f
5:18am 18 23 mph 1022.1mb 60f 55f
5:12am 11 20 mph 1022.1mb 60f 55f
5:06am 13 21 mph 1022mb 60f 55f
5:00am 17 24 mph 1021.8mb 60f 55f
4:54am 16 24 mph 1021.5mb 60f 55f
4:48am 14 20 mph 1021.6mb 60f -
4:42am 13 21 mph 1021.6mb 60f 55f
4:36am 14 21 mph 1021.7mb 60f 55f
4:30am 16 23 mph 1021.5mb 60f 55f
4:24am 13 21 mph 1021.5mb 60f 55f
4:18am 15 21 mph 1021.5mb 60f 55f
4:12am 14 23 mph 1021.3mb 60f 55f
4:06am 16 24 mph 1021.3mb 60f 56f
4:00am 16 23 mph 1021.2mb 61f 56f
3:54am 17 28 mph 1021.1mb 61f 56f
3:48am 15 23 mph 1021.2mb 61f 56f
3:42am 17 23 mph 1021.2mb 61f 56f
3:36am 16 22 mph 1021.1mb 61f 56f
3:30am 17 23 mph 1021mb 61f 56f
3:24am 16 23 mph 1020.8mb 61f 56f
3:18am 17 25 mph 1020.8mb 61f 56f
3:12am 17 23 mph 1020.8mb 61f 56f
3:06am 17 23 mph 1020.8mb 61f 56f
3:00am 16 22 mph 1020.7mb 61f 56f
2:54am 16 23 mph 1020.7mb 61f 56f
2:48am 14 26 mph 1020.7mb 61f 56f
2:42am 15 23 mph 1020.6mb 61f 56f
2:36am 15 25 mph 1020.6mb 61f 57f
2:30am 16 23 mph 1020.5mb 61f 57f
2:24am 11 24 mph 1020.5mb 61f 57f
2:18am 14 23 mph 1020.2mb 61f 57f
2:12am 16 22 mph 1020.2mb 61f 57f
2:06am 11 21 mph 1020.3mb 61f 57f
2:00am 15 22 mph 1020.3mb 61f 58f
1:54am 11 21 mph 1020.3mb 61f 58f
1:48am 15 21 mph 1020.1mb 61f -
1:42am 14 22 mph 1020mb 61f 58f
1:36am 13 22 mph 1019.9mb 61f 58f
1:30am 15 22 mph 1019.9mb 61f 58f
1:24am 14 21 mph 1019.9mb 61f 58f
1:18am 14 23 mph 1019.9mb 61f 58f
1:12am 14 21 mph 1019.7mb 61f 58f
1:06am 15 22 mph 1019.7mb 62f 58f
1:00am 14 22 mph 1019.7mb 62f 58f
12:54am 16 23 mph 1019.6mb 62f 58f
12:48am 11 18 mph 1019.8mb 62f -
12:42am 14 18 mph 1019.8mb 62f -
12:36am 14 22 mph 1019.7mb 62f -
12:30am 14 22 mph 1019.7mb 62f 58f
12:24am 14 23 mph 1019.8mb 62f 58f
12:18am 15 22 mph 1019.6mb 62f 58f
12:12am 16 22 mph 1019.7mb 62f 58f
12:06am 11 21 mph 1019.7mb 62f 58f
12:00am 11 17 mph 1019.7mb 62f 58f
Wed 12/07 11:54pm 11 17 mph 1019.6mb 62f 58f
11:48pm 11 18 mph 1019.6mb - -
11:42pm 11 20 mph 1019.7mb 62f -
11:36pm 13 18 mph 1019.6mb 62f -
11:30pm 13 18 mph 1019.7mb 62f 58f
11:24pm 11 15 mph 1019.6mb 62f 58f
11:18pm 10 17 mph 1019.8mb 62f 58f
11:12pm 10 15 mph 1019.7mb 62f 58f
11:06pm 10 18 mph 1019.8mb 62f 58f
11:00pm 10 16 mph 1019.6mb 62f 58f
10:54pm 9 14 mph 1019.5mb 62f 58f
10:48pm 10 15 mph 1019.3mb 62f 58f
10:42pm 13 17 mph 1019.3mb 62f 58f
10:36pm 10 15 mph 1019.2mb 62f 59f
10:30pm 9 16 mph 1019.1mb 62f 59f
10:24pm 13 16 mph 1019mb 62f 59f
10:18pm 13 20 mph 1019.1mb 62f 59f
10:12pm 11 16 mph 1019.1mb 62f 59f
10:06pm 10 14 mph 1019mb 62f 59f
10:00pm 10 15 mph 1019mb 62f 58f
9:54pm 9 15 mph 1018.9mb 62f 59f
9:48pm 10 15 mph 1018.8mb 62f 59f
9:42pm 9 16 mph 1018.8mb 62f 59f
9:36pm 10 15 mph 1018.9mb 62f 59f
9:30pm 8 15 mph 1018.8mb 62f 59f
9:24pm 14 17 mph 1018.7mb 62f 59f
9:18pm 7 15 mph 1018.7mb 62f 59f
9:12pm 10 16 mph 1018.6mb 62f 59f
9:06pm 10 14 mph 1018.6mb 62f 59f
9:00pm 11 15 mph 1018.5mb 62f 59f
8:54pm 9 16 mph 1018.5mb 62f 59f
8:48pm 9 14 mph 1018.4mb 62f 59f
8:42pm 9 14 mph 1018.4mb 62f 59f
8:36pm 10 15 mph 1018.3mb 62f 59f
8:30pm 10 15 mph 1018.2mb 62f 59f
8:24pm 9 11 mph 1018.2mb 62f 58f
8:18pm 7 11 mph 1018.2mb 62f 59f
8:12pm 8 13 mph 1018.1mb 62f 58f
8:06pm 9 11 mph 1018mb 62f 58f
8:00pm 7 9 mph 1018mb 62f 59f
7:54pm 8 13 mph 1017.8mb 62f 59f
7:48pm 7 11 mph 1017.9mb 62f 59f
7:42pm 6 11 mph 1017.8mb 62f 59f
7:36pm 8 11 mph 1017.8mb 62f 59f
7:30pm 8 11 mph 1017.7mb 62f 59f
7:24pm 8 11 mph 1017.7mb 62f 59f
7:18pm 9 13 mph 1017.6mb 62f 59f
7:12pm 8 11 mph 1017.6mb 62f 59f
7:06pm 9 14 mph 1017.5mb 62f 58f
7:00pm 9 14 mph 1017.4mb 62f 58f
6:54pm 8 14 mph 1017.3mb 62f 59f
6:48pm 10 15 mph 1017.2mb 62f 59f
6:42pm 9 14 mph 1017.2mb 62f 59f
6:36pm 9 15 mph 1017mb 62f 59f
6:30pm 9 13 mph 1016.9mb 62f 59f
6:24pm 9 14 mph 1016.9mb 62f 59f
6:18pm 9 11 mph 1016.8mb 62f 59f
6:12pm 9 11 mph 1016.6mb 62f 59f
6:06pm 8 11 mph 1016.6mb 62f 59f
6:00pm 9 13 mph 1016.6mb 62f 59f
5:54pm 9 14 mph 1016.4mb 62f 60f
5:48pm 8 14 mph 1016.5mb 62f 60f
5:42pm 9 15 mph 1016.5mb 62f 60f
5:36pm 10 15 mph 1016.4mb 62f 60f
5:30pm 10 15 mph 1016.3mb 62f 60f
5:24pm 9 13 mph 1016.2mb 62f 60f
5:18pm 9 14 mph 1016.2mb 62f 61f
5:12pm 8 13 mph 1016.3mb 62f 61f
5:06pm 8 11 mph 1016.2mb 62f 61f
5:00pm 8 11 mph 1016.1mb 62f 62f
4:54pm 7 9 mph 1015.9mb 62f 62f
4:48pm 7 14 mph 1015.7mb 62f 62f
4:42pm 8 15 mph 1015.6mb 62f 62f
4:36pm 9 11 mph 1015.7mb 62f 63f
4:30pm 7 13 mph 1015.7mb 62f 63f
4:24pm 8 13 mph 1015.8mb 62f 62f
4:18pm 8 13 mph 1015.7mb 62f -
4:12pm 6 11 mph 1015.7mb 62f 63f
4:06pm 9 14 mph 1015.6mb 62f 63f
4:00pm 9 11 mph 1015.5mb 62f 63f
3:54pm 7 10 mph 1015.6mb 62f 63f
3:48pm 8 11 mph 1015.5mb 62f 63f
3:42pm 6 8 mph 1015.5mb 62f 63f
3:36pm 7 11 mph 1015.4mb 62f 63f
3:30pm 9 11 mph 1015.4mb 62f 63f
3:24pm 6 13 mph 1015.4mb 62f 63f
3:18pm 8 13 mph 1015.3mb 62f 63f
3:12pm 9 13 mph 1015.3mb 62f 62f
3:06pm 8 11 mph 1015.3mb 62f 62f
3:00pm 10 14 mph 1015.3mb 62f 62f
2:54pm 8 11 mph 1015.2mb 62f 62f
2:48pm 9 13 mph 1015.1mb 62f -
2:42pm 8 10 mph 1015.2mb 62f 62f
2:36pm 8 11 mph 1015.2mb 62f 62f
2:30pm 8 13 mph 1015.2mb 62f 62f
2:24pm 8 10 mph 1015.3mb 62f 61f
2:18pm 8 13 mph 1015.3mb 62f -
2:12pm 8 11 mph 1015.2mb 62f 61f
2:06pm 9 14 mph 1015.2mb 62f 61f
2:00pm 8 13 mph 1015.3mb 62f 61f
1:54pm 7 10 mph 1015.3mb 62f 61f
1:48pm 8 13 mph 1015.4mb 62f -
1:42pm 7 13 mph 1015.4mb 62f 61f
1:36pm 10 14 mph 1015.4mb 62f 60f
1:30pm 8 13 mph 1015.5mb 62f 60f
1:24pm 8 11 mph 1015.8mb 62f 60f
1:18pm 7 13 mph 1015.9mb 62f 60f
1:12pm 7 13 mph 1016mb 62f 59f
1:06pm 8 13 mph 1016.1mb 62f 59f
1:00pm 10 13 mph 1016mb 62f 59f
12:54pm 8 11 mph 1016.2mb 62f 58f
12:48pm 7 10 mph 1016.3mb 62f 58f
12:42pm 9 11 mph 1016.5mb 62f 57f
12:36pm 6 9 mph 1016.7mb 62f 57f
12:30pm 7 13 mph 1016.8mb 62f 56f
12:24pm 6 10 mph 1016.8mb 62f 57f
12:18pm 6 10 mph 1017mb 61f 57f
12:12pm 9 11 mph 1017.1mb 61f 56f
12:06pm 7 11 mph 1017.2mb 61f 56f
12:00pm 9 11 mph 1017.3mb 61f 55f
11:54am 7 11 mph 1017.5mb 61f 55f
11:48am 7 9 mph 1017.8mb 61f 55f
11:42am 7 10 mph 1018mb 61f 55f
11:36am 7 10 mph 1018.1mb 61f 55f
11:30am 8 10 mph 1018.2mb 61f 55f
11:24am 8 11 mph 1018.3mb 61f 54f
11:18am 6 10 mph 1018.3mb 61f 54f
11:12am 8 11 mph 1018.4mb 61f 54f
11:06am 7 13 mph 1018.4mb 61f 54f
11:00am 9 13 mph 1018.4mb 61f 54f
10:54am 9 14 mph 1018.5mb 61f 54f
10:48am 10 14 mph 1018.5mb 61f 53f
10:42am 8 15 mph 1018.5mb 61f 54f
10:36am 9 15 mph 1018.4mb 61f 53f
10:30am 9 14 mph 1018.5mb 61f 54f
10:24am 7 14 mph 1018.5mb 61f 54f
10:18am 10 14 mph 1018.5mb 61f 53f
10:12am 8 13 mph 1018.4mb 61f 53f
10:06am 8 14 mph 1018.5mb 61f 53f
10:00am 9 14 mph 1018.5mb 61f 53f
9:54am 9 14 mph 1018.5mb 61f 53f
9:48am 11 15 mph 1018.6mb 61f 53f
9:42am 7 11 mph 1018.6mb 61f 53f
9:36am 10 13 mph 1018.5mb 61f 53f
9:30am 8 10 mph 1018.5mb 61f 53f
9:24am 8 13 mph 1018.4mb 60f 53f
9:18am 7 14 mph 1018.3mb 60f 53f
9:12am 9 14 mph 1018.1mb 60f 52f
9:06am 9 14 mph 1018mb 60f 53f
9:00am 9 11 mph 1017.9mb 60f 52f
8:54am 9 13 mph 1018mb 61f 52f
8:48am 8 11 mph 1018mb 61f 52f
8:42am 9 14 mph 1017.9mb 61f 52f
8:36am 9 13 mph 1017.8mb 61f 52f
8:30am 10 14 mph 1017.8mb 61f 51f
8:24am 8 14 mph 1017.7mb 61f 51f
8:18am 8 14 mph 1017.7mb 61f 51f
8:12am 9 14 mph 1017.6mb 61f 51f
8:06am 9 16 mph 1017.6mb 61f 51f
8:00am 8 13 mph 1017.6mb 61f 51f
7:54am 8 13 mph 1017.6mb 61f 51f
7:48am 9 14 mph 1017.6mb 61f 51f
7:42am 11 14 mph 1017.7mb 61f 51f
7:36am 9 13 mph 1017.9mb 61f 51f
7:30am 10 14 mph 1017.8mb 61f 51f
7:24am 10 13 mph 1017.8mb 61f 51f
7:18am 8 14 mph 1017.8mb 61f 51f
7:12am 9 13 mph 1017.7mb 61f 51f
7:06am 8 10 mph 1017.8mb 61f 51f
7:00am 7 11 mph 1017.8mb 61f 51f
6:54am 7 10 mph 1017.7mb 61f 51f
6:48am 8 13 mph 1017.6mb 61f 51f
6:42am 7 11 mph 1017.7mb 61f 51f
6:36am 6 10 mph 1017.8mb 61f 51f
6:30am 6 9 mph 1017.8mb 61f 51f
6:24am 7 9 mph 1017.6mb 61f 51f
6:18am 6 10 mph 1017.5mb 61f 51f
6:12am 6 10 mph 1017.4mb 60f 51f
6:06am 5 8 mph 1017.3mb 60f 50f
6:00am 7 10 mph 1017.1mb 60f 50f
5:54am 6 9 mph 1017mb 60f 49f
5:48am 6 8 mph 1017mb 60f 49f
5:42am 6 8 mph 1017mb 60f 49f
5:36am 6 7 mph 1017mb 60f 48f
5:30am 6 8 mph 1016.9mb 60f 48f
5:24am 6 7 mph 1016.8mb 60f 48f
5:18am 5 6 mph 1016.7mb 60f 48f
5:12am 5 7 mph 1016.6mb 60f 48f
5:06am 5 7 mph 1016.6mb 60f 48f
5:00am 3 7 mph 1016.6mb 60f 48f
4:54am 5 6 mph 1016.6mb 60f 49f
4:48am 5 6 mph 1016.6mb 60f -
4:42am 5 8 mph 1016.5mb 60f 49f
4:36am 6 9 mph 1016.4mb 60f 49f
4:30am 5 8 mph 1016.4mb 60f 49f
4:24am 6 10 mph 1016.4mb 60f 49f
4:18am 6 8 mph 1016.5mb 60f 49f
4:12am 6 8 mph 1016.5mb 60f 49f
4:06am 6 8 mph 1016.5mb 60f 49f
4:00am 6 9 mph 1016.5mb 60f 49f
3:54am 6 7 mph 1016.5mb 60f 49f
3:48am 6 9 mph 1016.7mb 60f 49f
3:42am 6 8 mph 1016.7mb 60f 49f
3:36am 7 9 mph 1016.6mb 60f 49f
3:30am 6 8 mph 1016.6mb 60f 49f
3:24am 6 8 mph 1016.7mb 60f 49f
3:18am 5 6 mph 1016.7mb 60f 49f
3:12am 5 6 mph 1016.8mb 60f 49f
3:06am 3 5 mph 1016.8mb 60f 49f
3:00am 3 5 mph 1016.9mb 60f 49f
2:54am 2 5 mph 1016.9mb 60f 49f
2:48am 3 5 mph 1016.9mb 60f 49f
2:42am 3 6 mph 1016.9mb 60f 49f
2:36am 5 6 mph 1016.9mb 60f 50f
2:30am 5 9 mph 1016.8mb 60f 50f
2:24am 7 9 mph 1016.7mb 60f 50f
2:18am 6 9 mph 1016.7mb 60f 50f
2:12am 6 8 mph 1016.7mb 60f 50f
2:06am 6 9 mph 1016.7mb 60f 50f
2:00am 7 9 mph 1016.6mb 60f 50f
1:54am 6 8 mph 1016.7mb 60f 50f
1:48am 6 9 mph 1016.7mb 60f 50f
1:42am 6 9 mph 1016.7mb 60f 50f
1:36am 6 10 mph 1016.6mb 60f 50f
1:30am 8 10 mph 1016.6mb 60f 50f
1:24am 7 9 mph 1016.6mb 60f 50f
1:18am 6 8 mph 1016.7mb 60f 50f
1:12am 7 8 mph 1016.7mb 60f 50f
1:06am 7 8 mph 1016.7mb 60f 50f
1:00am 6 8 mph 1016.7mb 60f 51f
12:54am 6 8 mph 1016.8mb 60f 51f
12:48am 5 7 mph 1016.9mb 60f 51f
12:42am 5 6 mph 1016.9mb 60f 50f
12:36am 5 6 mph 1016.9mb 60f 50f
12:30am 5 7 mph 1016.9mb 60f 50f
12:24am 6 8 mph 1016.9mb 60f 50f
12:18am 5 6 mph 1017mb 60f 50f
12:12am 5 7 mph 1017mb 60f 50f
12:06am 5 7 mph 1017mb 60f 51f
12:00am 5 7 mph 1016.9mb 60f 51f
Tue 12/06 11:54pm 5 7 mph 1016.9mb 60f 51f
11:48pm 6 7 mph 1016.9mb 60f 51f
11:42pm 5 7 mph 1017mb 60f 51f
11:36pm 5 8 mph 1016.9mb 60f 51f
11:30pm 6 9 mph 1016.8mb 60f 51f
11:24pm 7 10 mph 1016.8mb 60f 51f
11:18pm 7 11 mph 1016.8mb 60f 51f
11:12pm 7 11 mph 1016.9mb 60f 51f
11:06pm 6 11 mph 1017mb 60f 51f
11:00pm 9 14 mph 1017mb 60f 51f
10:54pm 8 11 mph 1017mb 60f 51f
10:48pm 7 11 mph 1017mb 60f 52f
10:42pm 9 11 mph 1016.8mb 60f 52f
10:36pm 7 11 mph 1017mb 60f 52f
10:30pm 8 11 mph 1017mb 61f 52f
10:24pm 8 10 mph 1017mb 61f 52f
10:18pm 7 9 mph 1017mb 61f 52f
10:12pm 7 9 mph 1017mb 61f 52f
10:06pm 6 11 mph 1017mb 61f 52f
10:00pm 7 10 mph 1016.9mb 61f 52f
9:54pm 7 10 mph 1017mb 61f 52f
9:48pm 7 10 mph 1016.9mb 61f 52f
9:42pm 9 11 mph 1016.9mb 61f 52f
9:36pm 8 13 mph 1016.9mb 61f 53f
9:30pm 7 11 mph 1017mb 61f 53f
9:24pm 8 11 mph 1016.9mb 61f 53f
9:18pm 8 11 mph 1016.9mb - -
9:12pm 8 13 mph 1016.8mb 61f 53f
9:06pm 9 13 mph 1016.8mb 61f 53f
9:00pm 9 11 mph 1016.8mb 61f 53f
8:54pm 8 13 mph 1016.9mb 61f 53f
8:48pm 8 14 mph 1016.9mb 61f 54f
8:30pm 8 14 mph 1016.8mb 61f 54f
8:24pm 9 14 mph 1016.8mb 61f 54f
8:18pm 9 14 mph 1016.7mb 61f 55f
8:12pm 10 17 mph 1016.7mb 61f 55f
8:06pm 10 17 mph 1016.6mb 61f 55f
8:00pm 11 17 mph 1016.6mb 61f 56f
7:54pm 9 16 mph 1016.5mb 61f 56f
7:48pm 10 16 mph 1016.3mb 61f 56f
6:54pm 7 11 mph 1015.5mb 61f 61f
6:48pm 8 11 mph 1015.3mb 61f 61f